Miscellaneous Local Product
Issued by NWS North Platte, NE

Home | Current Version | Previous Version | Graphics & Text | Print | Product List | Glossary On
Versions: 1 2 3 4 5 6 7 8 9 10 11 12 13 14 15 16 17 18 19 20 21 22 23 24 25 26 27 28 29 30 31 32 33 34 35 36 37 38 39 40 41 42 43 44 45 46 47 48 49 50
107
AXUS43 KLBF 051610
MISLBF


WESTERN AND NORTH CENTRAL NEBRASKA HOURLY WEATHER ROUNDUP
NATIONAL WEATHER SERVICE NORTH PLATTE NE
1000 AM CST FRI FEB 05 2016

NOTE: "FAIR" INDICATES FEW OR NO CLOUDS BELOW 12,000 FEET WITH NO
SIGNIFICANT WEATHER AND/OR OBSTRUCTIONS TO VISIBILITY.

NOTE: STATIONS NOT REPORTING VARIABLES SUCH AS SKY/WEATHER OR
PRESSURE ARE PROVIDED BY THE NEBRASKA DEPARTMENT OF
ROADS...RAWS...AND APRS NETWORKS...AND ARE NOT UNDER
NATIONAL WEATHER SERVICE QUALITY CONTROL.

...OBSERVATIONS IN AND NEAR THE EASTERN PANHANDLE OF NEBRASKA...

CITY           SKY/WX    TMP DP  RH WIND       PRES   REMARKS
PINE RIDGE     FLURRIES  30  23  75 NW7       30.23R WCI  23
CHADRON        CLOUDY    32  23  69 W22G29    30.25R WCI  19
ALLIANCE       MOSUNNY   24  18  77 W18       30.22R WCI  10
SIDNEY         SUNNY     21  13  71 W10       30.27R WCI  10
CRESCENT LAKE    N/A     30  22  70 NW15        N/A  WCI  19
$$

...OBSERVATIONS IN NORTH CENTRAL NEBRASKA...

CITY           SKY/WX    TMP DP  RH WIND       PRES   REMARKS
VALENTINE      CLOUDY    33  24  69 W15       30.19R WCI  23
THEDFORD       CLOUDY    31  23  73 W9        30.21R WCI  23
AINSWORTH      CLOUDY    32  26  77 W10       30.18R WCI  24
O`NEILL        CLOUDY    32  26  77 SW7       30.18S WCI  25
ORD            CLOUDY    28  25  88 CALM      30.21R
BROKEN BOW     MOSUNNY   31  24  75 W6        30.21R WCI  25
VALENTINE NWR    N/A     30  22  72 NW9         N/A  WCI  22
BUTTE            N/A     30  26  83 SW3         N/A
HALSEY           N/A     32  20  62 W6          N/A  WCI  26
CHAMBERS         N/A     35  29  78 W3          N/A
EWING            N/A     28  25  88 S6          N/A  WCI  22
$$

...OBSERVATIONS IN SOUTHWEST NEBRASKA AND FAR NORTHEAST COLORADO...

CITY           SKY/WX    TMP DP  RH WIND       PRES   REMARKS
WRAY           FAIR      28  18  66 W10       30.30R WCI  19
HOLYOKE        FAIR      34  21  60 NW13G22   30.28R WCI  25
IMPERIAL       SUNNY     28  17  63 W14       30.27R WCI  17
OGALLALA       SUNNY     29  19  67 NW17      30.24F WCI  17
NORTH PLATTE   SUNNY     29  20  69 W14       30.23R WCI  18
MCCOOK         PTSUNNY   34  27  75 W14       30.28R WCI  25
LEXINGTON      SUNNY     33  28  79 W10       30.24R WCI  25
PAXTON           N/A     27  24  89 W5          N/A  WCI  22
STAPLETON        N/A     29  23  77 CALM        N/A
GOTHENBURG       N/A     33  23  66 W7          N/A  WCI  27
CALLAWAY         N/A     29  24  80 NW12        N/A  WCI  19
$$

...OBSERVATIONS IN CENTRAL LINCOLN COUNTY AREA...

CITY           SKY/WX    TMP DP  RH WIND       PRES   REMARKS
N.P. AIRPORT   SUNNY     29  20  69 W14       30.23R WCI  18
N.P. DOWNTOWN    N/A     30  23  75 MISG        N/A
N.P. SOUTHEAST   N/A     30  22  70 NW6         N/A  WCI  24
N.P. HILLCREST   N/A     27  22  81 NW7         N/A  WCI  20
$$

...SOME OBSERVATIONS FROM AROUND THE REGION...

CITY           SKY/WX    TMP DP  RH WIND       PRES   REMARKS
DENVER         MOSUNNY   25   9  50 SW7       30.30R WCI  17
LARAMIE        CLOUDY    11   3  70 SW10      30.26R WCI  -3
CHEYENNE       CLOUDY    23   9  55 NW12      30.26R WCI  12
SCOTTSBLUFF    CLOUDY    22  12  65 NW14      30.29R WCI   9
RAPID CITY     SUNNY     30  24  78 N22       30.21R WCI  17
BISMARCK       MOSUNNY   29  20  69 NW9       30.19R WCI  20
PIERRE         CLOUDY    34  28  79 NW15      30.15R WCI  24
WINNER         CLOUDY    37  27  67 NW16      30.16S WCI  28
SIOUX FALLS    CLOUDY    22  15  75 S14       30.21S WCI   9
OMAHA          CLOUDY    25  21  85 S13       30.36F WCI  14
GRAND ISLAND   LGT SNOW  29  26  89 SW14      30.26S FOG     WCI  18
KANSAS CITY    CLOUDY    29  23  78 S8        30.41S WCI  21
WICHITA        MOSUNNY   36  20  52 SE8       30.36F WCI  30
OKLAHOMA CITY  MOSUNNY   45  26  47 S17       30.35F
LIBERAL        CLOUDY    30  16  55 NE17      30.23R WCI  18
HAYS           CLOUDY    27  12  54 NW3       30.33F
GOODLAND       MOSUNNY   28  24  85 W8        30.30R WCI  20
$$




USA.gov is the U.S. government's official web portal to all federal, state and local government web resources and services.